Regional Weather Roundup
Issued by NWS Boston, MA

Home | Current Version | Previous Version | Text Only | Print | Product List | Glossary On
Versions: 1 2 3 4 5 6 7 8 9 10 11 12 13 14 15 16 17 18 19 20 21 22 23 24 25 26 27 28 29 30 31 32 33 34 35 36 37 38 39 40 41 42 43 44 45 46 47 48 49 50
000
ASUS41 KBOX 311210
RWRBOX

REGIONAL WEATHER ROUNDUP
NATIONAL WEATHER SERVICE TAUNTON MA
800 AM EDT THU JUL 31 2014

NOTE:  "FAIR" INDICATES FEW OR NO CLOUDS BELOW 12,000 FEET WITH NO
SIGNIFICANT WEATHER AND/OR OBSTRUCTIONS TO VISIBILITY.  THE FOLLOWING
OBSERVATION LOCATIONS DO NOT REPORT PRESENT WEATHER...PROVINCETOWN...
SMITHFIELD...BLOCK ISLAND...KEENE...AND OXFORD.

MAZALL-311300-
EASTERN MASSACHUSETTS

CITY           SKY/WX    TMP DP  RH WIND       PRES   REMARKS
BOSTON         MOSUNNY   67  60  78 VRB3      30.10S
6HR MIN TEMP:  62; 6HR MAX TEMP:  67;

BEVERLY        SUNNY     66  60  81 S5        30.10R
LAWRENCE       SUNNY     64  58  80 SW5       30.11R
BEDFORD        SUNNY     65  61  87 MISG      30.09R
BLUE HILL        N/A     66  60  81 S7        30.11R
NORWOOD        SUNNY     65  61  87 CALM      30.11R
MARSHFIELD     SUNNY     68  63  83 SW6       30.13R
PLYMOUTH       SUNNY     67  60  78 SW5       30.12R
TAUNTON        SUNNY     66  61  84 CALM      30.11R
NEW BEDFORD    SUNNY     67  64  90 S3        30.11R
$$

MAZALL-311300-
CAPE COD AND THE ISLANDS

CITY           SKY/WX    TMP DP  RH WIND       PRES   REMARKS
FALMOUTH       NOT AVBL
HYANNIS        SUNNY     72  63  73 SW9       30.12R
CHATHAM        SUNNY     69  63  81 S5        30.14R
PROVINCETOWN   SUNNY     70  63  78 S9        30.12R
NANTUCKET      SUNNY     68  65  90 S6        30.13R
MARTHAS VNYRD  SUNNY     69  65  86 S6        30.13R
$$

MAZALL-311300-
CENTRAL AND WESTERN MASSACHUSETTS

CITY           SKY/WX    TMP DP  RH WIND       PRES   REMARKS
WORCESTER      MOSUNNY   64  59  83 SW6       30.12R
6HR MIN TEMP:  56; 6HR MAX TEMP:  64;

FITCHBURG      MOSUNNY   64  57  78 CALM      30.11R
ORANGE         MOSUNNY   58  55  90 CALM      30.09S
SPRINGFIELD    MOSUNNY   62  59  91 CALM      30.09S
WESTFIELD      SUNNY     59  56  89 CALM      30.09R
NORTH ADAMS    CLOUDY    59  55  87 E3        30.09R
PITTSFIELD     LGT RAIN  56  54  93 CALM      30.10R
$$

RIZALL-311300-
RHODE ISLAND

CITY           SKY/WX    TMP DP  RH WIND       PRES   REMARKS
PROVIDENCE     MOSUNNY   67  61  81 CALM      30.12R
6HR MIN TEMP:  58; 6HR MAX TEMP:  67;

NEWPORT        SUNNY     71  63  75 S7        30.12R
BLOCK ISLAND   SUNNY     72  63  73 SW8       30.12S
SMITHFIELD     SUNNY     66  57  72 SW3       30.11S
WESTERLY       SUNNY     66  61  84 CALM      30.12R
$$

CTZALL-311300-
CONNECTICUT

CITY           SKY/WX    TMP DP  RH WIND       PRES   REMARKS
BRADLEY INTL   PTSUNNY   64  59  83 VRB3      30.09R
6HR MIN TEMP:  57; 6HR MAX TEMP:  64;

HARTFORD       MOSUNNY   67  62  84 S3        30.09S
BRIDGEPORT     MOSUNNY   69  64  84 CALM      30.10R
DANBURY        PTSUNNY   62  57  83 CALM      30.12R
GROTON         SUNNY     69  66  90 S5        30.10S
NEW HAVEN      PTSUNNY   69  65  86 CALM      30.10S
CHESTER        FAIR      70  64  83 CALM      30.12R
MERIDEN        MOSUNNY   63  59  87 CALM      30.10S
WILLIMANTIC    MOSUNNY   60  57  89 CALM      30.12R
OXFORD         PTSUNNY   64  55  72 CALM      30.13R
$$

MEZ002-015-021-024-NHZ003-005-008-011-012-014-VTZ005-008-311300-
NORTHERN NEW ENGLAND

CITY           SKY/WX    TMP DP  RH WIND       PRES   REMARKS
PORTLAND ME    FOG       61  60  97 S5        30.11R VSB 1/2
6HR MIN TEMP:  59; 6HR MAX TEMP:  61;

BANGOR ME      CLOUDY    63  58  83 S7        30.10R
CONCORD NH     FOG       56  56 100 CALM      30.09S VSB 1/4
MANCHESTER NH  MOSUNNY   61  56  83 CALM      30.08R
NASHUA NH      MOSUNNY   60  56  87 CALM      30.10R
PORTSMOUTH NH  MOSUNNY   63  59  85 SW2       30.09R
JAFFREY NH     MOSUNNY   60  56  86 S3        30.11S
KEENE NH       PTSUNNY   55  46  71 CALM      30.10S
BURLINGTON VT  MOSUNNY   65  56  72 S8        30.04R
MT. WASHINGTON FOG       45  43  93 SW18G26     N/A  VSB 1/8
$$

NYZ052-076-311300-
EASTERN NEW YORK

CITY           SKY/WX    TMP DP  RH WIND       PRES   REMARKS
ALBANY         CLOUDY    64  57  78 S8        30.07R
6HR MIN TEMP:  63; 6HR MAX TEMP:  66;

NEW YORK CITY  PTSUNNY   71  55  56 SW9       30.09R
6HR MIN TEMP:  70; 6HR MAX TEMP:  72;

$$

ANZALL-311300-
MARINE OBSERVATIONS

STATION/POSITION TIME  TEMP    WIND        PRES    VSBY  WAVE
                       AIR SEA DIR/SP/G                  HT/PER
                 (UTC) (F)     (DEG/KT/KT) (MB)    (MI)  (FT/S)
BOSTON BUOY      NOT AVBL
BUZZARDS BAY     NOT AVBL
NANTUCKET SOUND  NOT AVBL
MASS BAY-STELLWA NOT AVBL
ISLE OF SHOALS   NOT AVBL
S OF BLOCK IS    NOT AVBL
$$

......................KEY.........................
  SKY/WX - SKY CONDITION/PRESENT WEATHER
  TMP    - TEMPERATURE IN FAHRENHEIT
  DWPT   - DEWPOINT IN FAHRENHEIT
  RH     - RELATIVE HUMIDITY IN PERCENT
  WIND   - DIRECTION AND SPEED IN MPH
  PRES   - MEAN SEA LEVEL PRESSURE IN INCHES OF HG
  WCI    - WIND CHILL INDEX
  VSB    - VISIBILITY IN MILES
  HX     - HEAT INDEX
  TC     - TEMPERATURE IN CELSIUS
  VRB    - VARIABLE WIND DIRECTION
  N/A    - NOT AVAILABLE


USA.gov is the U.S. government's official web portal to all federal, state and local government web resources and services.